Theta_e
338 340 338 337 329 325 320 317 315 316 316 316 316 320 322 331 329 331 330 331 330 322 326 328 329 326 324 323 322 322 322 323 326
335 339 339 336 332 328 324 319 315 315 316 317 318 321 320 331 331 330 330 329 328 329 325 323 323 323 322 324 324 324 324 323 324
331 337 338 336 333 331 329 324 317 314 315 316 319 320 320 330 331 330 330 332 332 321 320 321 322 322 324 323 324 324 324 325 323
329 329 335 335 333 332 332 330 324 316 314 315 316 319 320 325 329 330 330 330 331 331 326 319 320 321 322 322 322 323 324 324 324
335 332 329 330 330 328 331 332 331 325 316 314 315 316 319 321 325 328 330 329 329 333 331 324 318 319 320 321 321 322 322 323 324
338 339 336 334 332 333 329 330 332 332 328 319 315 315 316 319 327 330 327 327 327 326 331 325 319 318 318 319 319 320 321 321 322
338 338 338 338 336 333 333 331 330 331 332 331 324 318 317 317 329 330 329 327 324 319 324 320 319 319 319 319 319 319 319 320 320
337 337 337 337 337 337 334 333 332 331 330 331 330 329 328 318 327 328 329 329 325 319 319 319 319 319 319 319 319 319 319 320 320
331 333 336 336 336 336 337 337 336 335 335 335 332 331 329 327 327 327 327 327 325 322 321 321 324 324 319 318 319 319 319 319 320
318 325 330 333 335 336 337 336 336 336 336 335 334 333 332 330 326 326 326 327 326 322 321 321 322 328 326 321 318 318 319 319 319
309 311 322 325 329 332 335 337 337 336 336 336 335 334 333 333 332 326 324 324 326 324 319 319 321 323 327 327 326 323 319 318 318
308 308 308 309 313 319 324 329 334 335 336 335 335 335 335 334 333 333 331 326 323 324 322 319 318 321 322 322 327 329 328 327 326
310 311 310 309 308 309 314 317 323 331 332 333 335 336 335 334 334 334 334 332 330 327 323 320 319 318 320 320 321 322 325 325 327
311 312 312 311 311 311 311 311 313 314 320 329 331 331 333 335 334 333 334 334 331 331 332 329 323 319 318 317 317 318 319 321 322
311 311 311 311 311 311 311 310 309 310 313 317 324 327 330 332 331 331 332 333 334 332 332 332 331 327 324 327 324 318 316 318 320
311 311 311 311 311 312 312 312 312 313 313 313 314 315 321 327 328 329 332 332 332 332 333 333 332 332 329 326 325 324 320 323 320
311 310 310 311 311 310 311 312 312 313 312 313 313 315 319 321 324 325 327 328 330 331 332 332 332 331 332 330 330 328 328 325 324
310 310 309 309 310 310 310 311 312 313 313 314 314 317 319 320 324 325 327 329 329 330 330 330 331 331 329 329 330 328 327 327 328
310 310 310 311 311 311 311 311 311 312 313 313 313 314 316 318 321 324 326 327 330 331 329 329 328 330 330 330 328 328 329 329 330
310 310 309 310 309 309 311 312 312 312 313 313 314 314 314 314 315 320 317 320 323 325 325 325 325 326 328 329 329 329 328 328 328
Wind_Speed
4 6 6 4 6 7 7 7 5 4 3 3 1 3 7 9 5 3 3 2 6 1 5 3 3 1 4 5 5 7 8 9 9
5 2 5 5 6 6 6 6 6 4 3 2 0 2 8 7 2 2 3 7 6 2 2 3 3 3 2 2 4 6 6 7 7
6 6 7 9 9 8 7 7 6 6 5 3 2 3 8 9 6 7 6 7 8 1 0 2 1 2 2 1 2 2 4 5 5
10 10 11 11 11 11 10 9 8 7 7 6 5 5 6 10 8 6 8 11 8 7 4 4 3 2 1 1 1 1 2 2 4
13 14 14 14 14 14 13 12 11 10 9 9 8 7 8 8 7 6 13 12 10 11 9 6 6 5 4 4 3 3 3 3 3
12 15 14 15 16 15 15 15 14 13 12 12 12 11 9 9 6 7 12 13 13 16 12 10 9 7 6 6 6 6 6 6 5
15 19 19 20 19 19 19 18 18 18 16 15 13 12 13 11 6 13 16 15 15 15 18 13 11 9 9 8 7 7 8 8 8
18 18 21 23 23 23 22 22 22 20 19 18 15 12 12 13 10 17 17 18 16 15 17 15 12 12 11 10 10 9 9 9 9
22 22 23 23 23 25 23 21 19 19 18 16 13 17 17 15 12 18 19 19 18 18 17 16 15 15 14 13 12 12 11 11 11
21 18 22 24 24 25 25 25 25 23 22 21 20 22 21 20 20 20 22 21 20 19 19 18 17 17 17 15 15 14 14 14 14
24 24 24 23 25 26 28 28 27 27 29 27 25 23 23 25 24 23 24 24 22 21 20 20 19 18 18 18 17 17 16 16 17
27 27 27 28 28 26 29 29 32 31 30 30 30 27 27 27 26 26 24 26 26 24 21 21 22 21 20 19 20 21 19 19 18
24 26 29 29 28 28 29 30 31 33 33 33 32 32 32 31 29 29 26 26 28 27 25 21 21 23 22 20 21 21 22 22 21
23 25 27 29 28 26 28 32 31 32 33 36 35 35 35 32 32 32 31 28 28 29 27 25 23 21 21 21 23 24 23 24 24
28 30 31 30 30 29 30 32 32 32 32 32 33 37 35 32 37 35 30 30 33 34 33 32 29 26 22 22 26 27 25 24 25
24 26 29 30 28 25 26 27 27 27 25 26 29 34 33 32 39 34 35 30 33 33 33 32 33 34 32 31 32 30 23 25 30
25 28 28 26 25 27 26 24 26 28 27 28 28 28 27 28 27 27 28 28 33 32 32 35 36 38 39 38 27 29 34 30 30
15 17 16 16 19 23 27 22 24 26 24 23 24 13 15 17 18 21 22 25 27 28 31 28 27 28 29 30 33 30 30 32 32
14 16 16 16 15 17 18 24 26 25 28 26 27 30 29 26 19 13 10 12 16 15 16 18 18 16 21 24 29 31 34 38 37
15 14 16 18 19 20 20 20 22 25 27 23 23 26 26 30 30 26 33 27 23 21 19 21 22 20 20 20 22 21 21 18 18
Wind_Direction
313 262 242 283 328 339 345 348 356 360 9 9 100 153 139 111 79 62 207 203 307 118 156 181 206 111 77 78 72 69 61 62 59
324 267 214 281 306 317 327 330 330 325 329 342 202 155 163 143 180 151 229 274 315 140 165 198 212 180 168 82 67 61 57 51 50
297 270 268 281 292 299 304 310 313 304 295 297 274 205 175 155 147 243 253 274 278 281 115 304 178 184 173 139 64 63 50 42 34
291 278 272 278 286 288 288 293 295 293 284 277 268 243 211 201 188 217 248 255 263 263 269 280 271 262 231 233 306 4 19 14 11
291 286 278 274 277 279 279 281 283 284 279 271 267 260 245 235 227 226 230 247 251 252 264 264 261 255 250 252 260 274 285 296 316
284 285 280 280 278 275 274 273 273 274 275 273 267 264 260 247 224 253 264 252 256 248 256 257 250 251 252 255 259 264 273 280 284
267 272 274 272 276 275 272 270 268 267 270 270 263 265 266 253 226 250 262 256 259 249 246 251 242 245 251 255 259 262 266 272 276
276 269 270 275 278 277 272 270 266 269 269 266 265 273 278 248 221 249 258 262 260 253 249 261 244 248 250 253 259 263 267 271 276
277 273 270 271 272 276 275 273 269 268 270 275 247 266 271 270 239 245 259 266 266 256 253 256 258 256 256 254 255 259 264 269 272
267 275 281 275 270 268 271 265 264 264 261 260 253 240 249 255 254 248 252 254 263 262 254 254 255 260 266 266 265 261 261 264 268
276 264 259 265 271 273 268 266 263 260 258 257 251 259 244 245 251 249 253 256 260 264 257 254 254 250 259 269 272 276 277 273 270
282 282 276 268 264 269 271 269 266 267 261 258 259 255 252 253 253 258 255 257 254 259 261 256 253 253 253 256 262 269 276 281 283
278 282 282 281 278 270 262 267 267 264 267 269 262 259 258 258 253 245 246 255 260 261 261 256 253 252 254 257 260 262 267 270 272
268 270 275 277 277 275 272 266 267 271 270 266 270 270 266 265 258 256 255 244 250 258 269 261 256 249 248 257 264 264 265 265 269
272 268 268 270 274 273 273 274 273 270 268 270 268 267 269 269 267 265 257 260 249 246 257 266 261 256 248 261 265 263 261 266 268
288 284 282 274 269 275 277 275 271 267 267 269 271 270 268 269 263 270 262 261 254 258 259 261 263 256 250 267 270 254 251 268 273
296 297 289 281 275 268 263 269 276 276 269 266 268 273 274 270 271 271 266 271 261 259 255 253 257 264 259 270 255 259 264 258 258
315 322 319 308 291 281 268 265 271 275 271 263 260 273 261 273 272 263 263 263 259 255 258 260 260 261 260 259 263 263 257 258 261
319 320 322 317 313 305 288 270 267 269 272 263 252 251 260 277 288 285 268 276 265 266 273 277 275 273 265 263 262 264 263 265 261
316 326 319 307 303 295 288 284 275 267 268 268 266 263 263 261 261 275 271 263 275 279 279 285 290 282 275 274 269 270 272 281 278